Location: Kitt Peak
(31.9639°N, 111.5992°W)
Time: 14:48:54
(UTC-07:00)

Hubble Space Telescope - Pass Details

Date: 29 May 2024
Orbit: 510 x 514 km, 28.5° (Epoch: 23 June)

Event Time Altitude Azimuth Distance (km) Brightness Sun altitude
Rises 21:20:57 0° 264° (W) 2,609 4.9 -20.6°
Reaches altitude 10° 21:23:14 10° 259° (W) 1,722 3.8 -21.0°
Enters shadow 21:26:26 44° 217° (SW) 710 1.2 -21.5°
